Berlin, MD

5:48 PM EST on January 18, 2017 (GMT -0500)
Ocean City Municipal

Weather History for KOXB - November, 2012

Change the Weather History Date:

Saturday, November 17, 2012

  Actual Average (KSBY) Record (KSBY)
Temperature  
Mean Temperature 44 °F -  
Max Temperature 53 °F 57 °F 75 °F (1927)
Min Temperature 34 °F 35 °F 13 °F (1933)
Degree Days  
Heating Degree Days 22    
Moisture  
Dew Point 40 °F    
Average Humidity 79    
Maximum Humidity 89    
Minimum Humidity 71    
Precipitation  
Precipitation 0.00 in - - ()
Sea Level Pressure  
Sea Level Pressure 30.51 in    
Wind  
Wind Speed 9 mph (NNE)    
Max Wind Speed 17 mph    
Max Gust Speed 24 mph    
Visibility 10 miles    
Events      
Averages and records for this station are not official NWS values.
T = Trace of Precipitation, MM = Missing Value Source: NWS Daily Summary

Daily Weather History Graph

Daily Weather History Graph

Search for Another Location

Airport or City:

Trip Planner

Search our weather history database for the weather conditions in past years. The results will help you decide how hot, cold, wet, or windy it might be!

Date:

Astronomy

Nov. 17, 2012 Rise Set
Actual Time 6:44 AM EST 4:46 PM EST
Civil Twilight 6:16 AM EST 5:14 PM EST
Nautical Twilight 5:44 AM EST 5:46 PM EST
Astronomical Twilight 5:12 AM EST 6:18 PM EST
Moon 10:27 AM EST (11/17) 8:53 PM EST (11/17)
Length of Visible Light 10h 58m
Length of Day
10h 01m
Waxing Crescent, 20% of the Moon is Illuminated
Nov 17
Waxing Crescent
Nov 20
First Quarter
Nov 28
Full
Dec 6
Last Quarter
Dec 13
New

Hourly Weather History & Observations

Time (EST) Temp. Windchill Dew Point Humidity Pressure Visibility Wind Dir Wind Speed Gust Speed Precip Events Conditions
12:53 AM 35.1 °F 29.3 °F 30.9 °F 85% 30.40 in 10.0 mi NNW 6.9 mph - N/A   Clear
1:53 AM 34.0 °F 28.8 °F 30.9 °F 89% 30.41 in 10.0 mi NNW 5.8 mph - N/A   Clear
2:53 AM 34.0 °F 28.8 °F 30.0 °F 85% 30.43 in 10.0 mi North 5.8 mph - N/A   Clear
3:53 AM 34.0 °F 28.8 °F 30.0 °F 85% 30.43 in 10.0 mi North 5.8 mph - N/A   Clear
4:53 AM 34.0 °F 28.0 °F 30.9 °F 89% 30.44 in 10.0 mi NNW 6.9 mph - N/A   Clear
5:53 AM 34.0 °F 28.0 °F 30.9 °F 89% 30.46 in 10.0 mi NNW 6.9 mph - N/A   Clear
6:53 AM 34.0 °F 28.0 °F 30.9 °F 89% 30.47 in 10.0 mi NNW 6.9 mph - N/A   Clear
8:53 AM 46.9 °F - 39.9 °F 77% 30.52 in 10.0 mi NNE 10.4 mph - N/A   Partly Cloudy
9:53 AM 48.9 °F - 41.0 °F 74% 30.53 in 10.0 mi NNE 10.4 mph 18.4 mph N/A   Clear
10:53 AM 50.0 °F - 41.0 °F 71% 30.53 in 10.0 mi NNE 10.4 mph 19.6 mph N/A   Partly Cloudy
11:50 AM 51.8 °F - 42.8 °F 71% 30.53 in 10.0 mi NNE 13.8 mph 21.9 mph N/A   Mostly Cloudy
11:53 AM 51.1 °F - 42.1 °F 71% 30.53 in 10.0 mi NNE 17.3 mph 21.9 mph N/A   Mostly Cloudy
12:38 PM 51.8 °F - 42.8 °F 71% 30.52 in 10.0 mi NNE 15.0 mph 24.2 mph N/A   Mostly Cloudy
12:53 PM 53.1 °F - 44.1 °F 71% 30.52 in 10.0 mi NNE 11.5 mph 19.6 mph N/A   Mostly Cloudy
1:53 PM 53.1 °F - 44.1 °F 71% 30.52 in 10.0 mi NE 13.8 mph 19.6 mph N/A   Overcast
2:53 PM 52.0 °F - 45.0 °F 77% 30.52 in 10.0 mi NE 13.8 mph 21.9 mph N/A   Overcast
3:53 PM 51.1 °F - 44.1 °F 77% 30.53 in 10.0 mi NE 11.5 mph 19.6 mph N/A   Overcast
4:53 PM 50.0 °F - 45.0 °F 83% 30.53 in 10.0 mi NNE 11.5 mph - N/A   Overcast
5:53 PM 50.0 °F - 45.0 °F 83% 30.53 in 10.0 mi NNE 12.7 mph - N/A   Scattered Clouds
6:53 PM 50.0 °F - 45.0 °F 83% 30.55 in 10.0 mi NE 12.7 mph - N/A   Overcast
7:53 PM 50.0 °F - 44.1 °F 80% 30.54 in 10.0 mi NE 15.0 mph 20.7 mph N/A   Overcast
8:53 PM 51.1 °F - 45.0 °F 80% 30.55 in 10.0 mi NE 11.5 mph - N/A   Overcast
9:53 PM 51.1 °F - 44.1 °F 77% 30.56 in 10.0 mi NE 11.5 mph - N/A   Scattered Clouds
10:53 PM 51.1 °F - 44.1 °F 77% 30.54 in 10.0 mi NE 10.4 mph 20.7 mph N/A   Clear
11:53 PM 50.0 °F - 44.1 °F 80% 30.54 in 10.0 mi NE 13.8 mph 23.0 mph N/A   Clear